Previsão horária em Senigallia

Hoje, 30 Novembro, Segunda-feira

Tempo Temperatura Precipitação Vento Pressão Humidade
00:00 +8°C° 0 mm 4 m/s 762 mmHg 86%
01:00 +9°C° 0 mm 3 m/s 762 mmHg 87%
02:00 +9°C° 0 mm 3 m/s 762 mmHg 87%
03:00 +8°C° 0 mm 4 m/s 762 mmHg 87%
04:00 +8°C° 0 mm 4 m/s 762 mmHg 87%
05:00 +8°C° 0 mm 4 m/s 762 mmHg 86%
06:00 +7°C° 0 mm 4 m/s 763 mmHg 85%
07:00 +7°C° 0 mm 4 m/s 763 mmHg 85%
08:00 +7°C° 0 mm 4 m/s 764 mmHg 79%
09:00 +8°C° 0 mm 4 m/s 764 mmHg 73%
10:00 +10°C° 0 mm 4 m/s 765 mmHg 68%
11:00 +9°C° 0 mm 5 m/s 765 mmHg 67%
12:00 +9°C° 0 mm 5 m/s 765 mmHg 67%
13:00 +10°C° 0 mm 5 m/s 765 mmHg 66%
14:00 +9°C° 0 mm 5 m/s 764 mmHg 69%
15:00 +8°C° 0 mm 5 m/s 764 mmHg 71%
16:00 +8°C° 0 mm 4 m/s 764 mmHg 74%
17:00 +7°C° 0 mm 4 m/s 764 mmHg 75%
18:00 +7°C° 0 mm 3 m/s 764 mmHg 76%
19:00 +7°C° 0 mm 3 m/s 764 mmHg 77%
20:00 +6°C° 0 mm 2 m/s 764 mmHg 77%
21:00 +6°C° 0 mm 2 m/s 764 mmHg 78%
22:00 +6°C° 0 mm 2 m/s 764 mmHg 78%
23:00 +6°C° 0 mm 2 m/s 764 mmHg 79%

Amanhã, 1 Dezembro, Terça-feira

Tempo Temperatura Precipitação Vento Pressão Humidade
00:00 +6°C° 0 mm 2 m/s 764 mmHg 80%
01:00 +6°C° 0 mm 2 m/s 763 mmHg 81%
02:00 +6°C° 0 mm 2 m/s 763 mmHg 82%
03:00 +5°C° 0 mm 2 m/s 763 mmHg 84%
04:00 +5°C° 0 mm 2 m/s 762 mmHg 86%
05:00 +5°C° 0 mm 2 m/s 762 mmHg 86%
06:00 +5°C° 0 mm 2 m/s 762 mmHg 87%
07:00 +6°C° 0 mm 1 m/s 761 mmHg 88%
08:00 +7°C° 0 mm 1 m/s 761 mmHg 85%
09:00 +8°C° 0 mm 1 m/s 761 mmHg 82%
10:00 +9°C° 0 mm 1 m/s 761 mmHg 79%
11:00 +9°C° 0 mm 1 m/s 761 mmHg 77%
12:00 +10°C° 0 mm 1 m/s 760 mmHg 75%
13:00 +10°C° 0 mm 2 m/s 760 mmHg 74%
14:00 +9°C° 0.2 mm 2 m/s 759 mmHg 78%
15:00 +9°C° 0.2 mm 2 m/s 759 mmHg 83%
16:00 +9°C° 0.2 mm 2 m/s 759 mmHg 87%
17:00 +8°C° 0.6 mm 2 m/s 759 mmHg 89%
18:00 +8°C° 0.6 mm 2 m/s 758 mmHg 91%
19:00 +8°C° 0.6 mm 3 m/s 758 mmHg 92%
20:00 +8°C° 0.7 mm 3 m/s 758 mmHg 93%
21:00 +8°C° 0.7 mm 3 m/s 758 mmHg 94%
22:00 +8°C° 0.7 mm 3 m/s 758 mmHg 94%
23:00 +8°C° 1 mm 3 m/s 757 mmHg 94%

Depois de amanhã, 2 Dezembro, Quarta-feira

Tempo Temperatura Precipitação Vento Pressão Humidade
00:00 +8°C° 1 mm 3 m/s 757 mmHg 94%
01:00 +8°C° 1 mm 3 m/s 757 mmHg 93%
02:00 +8°C° 1.3 mm 3 m/s 756 mmHg 92%
03:00 +9°C° 1.3 mm 3 m/s 756 mmHg 92%
04:00 +8°C° 1.3 mm 4 m/s 755 mmHg 91%
05:00 +9°C° 0.2 mm 3 m/s 755 mmHg 89%
06:00 +9°C° 0.2 mm 3 m/s 755 mmHg 87%
07:00 +9°C° 0.2 mm 3 m/s 755 mmHg 85%
08:00 +10°C° 0 mm 3 m/s 755 mmHg 81%
09:00 +12°C° 0 mm 2 m/s 755 mmHg 77%
10:00 +13°C° 0 mm 2 m/s 756 mmHg 73%
11:00 +13°C° 0 mm 2 m/s 756 mmHg 70%
12:00 +14°C° 0 mm 1 m/s 756 mmHg 66%
13:00 +14°C° 0 mm 1 m/s 756 mmHg 62%
14:00 +13°C° 0.2 mm 2 m/s 755 mmHg 70%
15:00 +12°C° 0.2 mm 2 m/s 755 mmHg 77%
16:00 +11°C° 0.2 mm 3 m/s 755 mmHg 84%
17:00 +10°C° 0.3 mm 3 m/s 754 mmHg 87%
18:00 +10°C° 0.3 mm 3 m/s 754 mmHg 90%
19:00 +9°C° 0.3 mm 3 m/s 753 mmHg 93%
20:00 +9°C° 1.6 mm 3 m/s 752 mmHg 94%
21:00 +9°C° 1.6 mm 3 m/s 752 mmHg 95%
22:00 +8°C° 1.6 mm 4 m/s 751 mmHg 96%
23:00 +8°C° 1.2 mm 4 m/s 751 mmHg 94%

3 Dezembro, Quinta-feira

Tempo Temperatura Precipitação Vento Pressão Humidade
00:00 +8°C° 1.2 mm 5 m/s 751 mmHg 92%
01:00 +8°C° 1.2 mm 5 m/s 751 mmHg 90%
02:00 +8°C° 0 mm 6 m/s 751 mmHg 89%
03:00 +8°C° 0 mm 6 m/s 751 mmHg 89%
04:00 +6°C° 0 mm 7 m/s 751 mmHg 88%
05:00 +7°C° 0 mm 6 m/s 751 mmHg 89%
06:00 +7°C° 0 mm 6 m/s 751 mmHg 89%
07:00 +5°C° 0 mm 6 m/s 752 mmHg 90%
08:00 +7°C° 0 mm 6 m/s 752 mmHg 87%
09:00 +7°C° 0 mm 5 m/s 752 mmHg 85%
10:00 +8°C° 0 mm 5 m/s 752 mmHg 83%
11:00 +8°C° 0 mm 5 m/s 752 mmHg 83%
12:00 +8°C° 0 mm 5 m/s 752 mmHg 82%
13:00 +8°C° 0 mm 4 m/s 752 mmHg 82%
14:00 +8°C° 0 mm 4 m/s 751 mmHg 83%
15:00 +8°C° 0 mm 4 m/s 751 mmHg 85%
16:00 +8°C° 0 mm 3 m/s 751 mmHg 86%
17:00 +8°C° 0 mm 3 m/s 751 mmHg 86%
18:00 +8°C° 0 mm 3 m/s 751 mmHg 86%
19:00 +8°C° 0 mm 3 m/s 751 mmHg 87%
20:00 +7°C° 0 mm 3 m/s 751 mmHg 87%
21:00 +7°C° 0 mm 3 m/s 750 mmHg 88%
22:00 +7°C° 0 mm 3 m/s 750 mmHg 88%
23:00 +6°C° 0 mm 2 m/s 750 mmHg 89%

4 Dezembro, Sexta-feira

Tempo Temperatura Precipitação Vento Pressão Humidade
00:00 +6°C° 0 mm 2 m/s 750 mmHg 89%
01:00 +6°C° 0 mm 2 m/s 750 mmHg 89%
02:00 +6°C° 0 mm 2 m/s 750 mmHg 89%
03:00 +6°C° 0 mm 2 m/s 750 mmHg 89%
04:00 +6°C° 0 mm 2 m/s 750 mmHg 89%
05:00 +6°C° 0 mm 2 m/s 750 mmHg 88%
06:00 +5°C° 0 mm 3 m/s 749 mmHg 87%
07:00 +5°C° 0 mm 3 m/s 749 mmHg 86%
08:00 +6°C° 0 mm 4 m/s 749 mmHg 83%
09:00 +6°C° 0 mm 4 m/s 749 mmHg 79%
10:00 +7°C° 0 mm 5 m/s 749 mmHg 76%
11:00 +8°C° 0.1 mm 5 m/s 748 mmHg 73%
12:00 +9°C° 0.1 mm 6 m/s 748 mmHg 70%
13:00 +10°C° 0.1 mm 7 m/s 747 mmHg 68%
14:00 +10°C° 0.4 mm 7 m/s 746 mmHg 72%
15:00 +9°C° 0.4 mm 8 m/s 746 mmHg 77%
16:00 +8°C° 0.4 mm 9 m/s 745 mmHg 81%
17:00 +9°C° 0.2 mm 8 m/s 745 mmHg 81%
18:00 +9°C° 0.2 mm 8 m/s 744 mmHg 82%
19:00 +9°C° 0.2 mm 8 m/s 744 mmHg 82%
20:00 +9°C° 0.1 mm 8 m/s 744 mmHg 83%
21:00 +9°C° 0.1 mm 8 m/s 744 mmHg 84%
22:00 +9°C° 0.1 mm 8 m/s 744 mmHg 84%
23:00 +9°C° 0.2 mm 8 m/s 743 mmHg 86%

5 Dezembro, Sábado

Tempo Temperatura Precipitação Vento Pressão Humidade
00:00 +8°C° 0.2 mm 7 m/s 743 mmHg 87%
01:00 +8°C° 0.2 mm 7 m/s 743 mmHg 89%
02:00 +8°C° 0.2 mm 7 m/s 742 mmHg 89%
03:00 +8°C° 0.2 mm 7 m/s 742 mmHg 88%
04:00 +8°C° 0.2 mm 7 m/s 741 mmHg 88%
05:00 +8°C° 0.3 mm 7 m/s 741 mmHg 89%
06:00 +8°C° 0.3 mm 7 m/s 741 mmHg 90%
07:00 +8°C° 0.3 mm 6 m/s 741 mmHg 91%
08:00 +9°C° 1.3 mm 6 m/s 741 mmHg 90%
09:00 +9°C° 1.3 mm 6 m/s 741 mmHg 88%
10:00 +9°C° 1.3 mm 5 m/s 741 mmHg 87%
11:00 +9°C° 0.2 mm 5 m/s 742 mmHg 81%
12:00 +9°C° 0.2 mm 6 m/s 742 mmHg 76%
13:00 +10°C° 0.2 mm 6 m/s 742 mmHg 71%
14:00 +9°C° 0 mm 6 m/s 742 mmHg 72%
15:00 +9°C° 0 mm 5 m/s 743 mmHg 74%
16:00 +8°C° 0 mm 4 m/s 743 mmHg 75%
17:00 +7°C° 0 mm 4 m/s 743 mmHg 76%
18:00 +7°C° 0 mm 4 m/s 744 mmHg 78%
19:00 +6°C° 0 mm 4 m/s 744 mmHg 79%
20:00 +6°C° 0 mm 4 m/s 745 mmHg 79%
21:00 +5°C° 0 mm 4 m/s 745 mmHg 80%
22:00 +5°C° 0 mm 4 m/s 746 mmHg 81%
23:00 +5°C° 0 mm 3 m/s 746 mmHg 80%
Mostrar mais

Necessitamos do seu Consentimento

A Meteoprog e os seus Fornecedores de Serviços podem armazenar e aceder a dados pessoais como cookies, identificadores do dispositivo ou outras tecnologias semelhantes existentes no seu dispositivo e processar estes dados para personalizar conteúdos e anúncios, assim como funcionalidades nas redes sociais e análise de tráfego.

  • Armazenar e/ou aceder a informações no seu dispositivo

    Os cookies, identificadores do dispositivo ou outras informações podem ser armazenados ou acedidos no seu dispositivo, para os fins acima indicados.

  • Anúncios e conteúdos personalizados, medição de anúncios e conteúdos, dados sobre o público-alvo e desenvolvimento de produtos

    Os anúncios e os conteúdos podem ser personalizados com base num perfil. Podem ser adicionados dados adicionais para uma maior personalização dos anúncios e dos conteúdos. A eficácia dos anúncios e dos conteúdos pode ser medida. Podem ser obtidas informações sobre o público que visualizou os anúncios e os conteúdos. Estes dados podem ser usados para desenvolver ou melhorar sistemas, softwares ou a experiência do utilizador.

Ao clicar em "Eu concordo”, permitirá o uso de cookies, identificadores do dispositivo e web beacons mencionados ou outras tecnologias semelhantes. As configurações do navegador do seu dispositivo podem ser alteradas.

Para certos fins, podem ser invocados interesses legítimos ao invés de consentimento. Pode ler mais informação sobre este assunto na nossa Política de Privacidade e Cookies.